[[{"header":{"parameterUnit":"m.s-1","parameterCategory":1,"la1":30.2991,"la2":30.254,"lo1":-89.0895,"lo2":-89.0444,"dy":0.0017,"dx":0.0017,"nx":28,"ny":28,"refTime":"2025-09-07T09:00:00:Z","depth":0,"parameterNumber":2,"parameterNumberName":"U-component_of_WINDS"},"data":[0,0,0,0,0,0,0,0,0,0,0,0,0,0,0,0,0,0,0,0,0,0,0,0,0,0,0,0,0,0,0,0,0,0,0,0,0,0,0,0,0,0,0,0,0,0,0,0,0,0,0,0,0,0,0,0,0,0,-3.5299,-3.53,0,-3.5356,-3.5357,-3.5358,-3.5232,-3.5228,-3.5224,-3.522,-3.5279,-3.5284,-3.529,0,0,0,0,0,0,0,0,0,0,0,0,0,-3.5081,-3.5086,-3.5299,-3.53,-3.5301,-3.5356,-3.5357,-3.5358,-3.5232,-3.5227,-3.5223,-3.5218,-3.5277,-3.5284,-3.529,0,0,0,0,0,0,0,0,0,0,0,0,0,-3.5161,-3.5087,-3.5299,-3.5245,-3.524,-3.5356,-3.5357,-3.5358,-3.5233,-3.5227,-3.5221,-3.5216,-3.5275,-3.5283,-3.5291,-3.5462,0,0,-3.5316,-3.5319,0,0,0,0,0,0,0,0,-3.5156,-3.5169,-3.5252,-3.5249,-3.5244,-3.5281,-3.5302,-3.5393,-3.5235,-3.5236,-3.522,-3.5213,-3.5285,-3.5292,-3.5316,-3.5465,-3.5468,-3.5316,-3.5321,-3.5325,-3.5327,0,0,0,0,0,0,0,-3.5151,-3.5166,-3.5322,-3.5253,-3.5249,-3.5217,-3.5222,-3.5318,-3.5294,-3.5236,-3.5227,-3.5235,-3.5281,-3.5308,-3.5316,-3.5469,-3.5316,-3.5323,-3.5328,-3.5331,-3.576,-3.5767,0,0,0,0,0,0,-3.5152,-3.5162,-3.532,-3.5323,-3.5184,-3.5226,-3.5231,-3.5275,-3.5292,-3.5289,-3.524,-3.5229,-3.5297,-3.5307,-3.5318,-3.552,-3.5325,-3.5332,-3.5337,-3.5754,-3.5762,-3.5769,0,0,0,0,0,0,-3.5148,-3.5168,-3.5318,-3.524,-3.5257,-3.5236,-3.5287,-3.5279,-3.5306,-3.5296,-3.5291,-3.5272,-3.5293,-3.5306,-3.5427,-3.552,-3.5336,-3.5343,-3.5746,-3.5756,-3.5765,-3.5925,0,0,0,0,0,0,-3.5142,-3.5167,-3.5232,-3.5243,-3.5262,-3.5427,-3.5292,-3.5285,-3.532,-3.5306,-3.5325,-3.5322,-3.5289,-3.5416,-3.5435,-3.5528,-3.5349,-3.5738,-3.5751,-3.5762,-3.5911,-3.5939,-3.5963,0,0,0,0,0,-3.5135,-3.5275,-3.5236,-3.5256,-3.5343,-3.5433,-3.5443,-3.5403,-3.5328,-3.5394,-3.5387,-3.5321,-3.5506,-3.5429,-3.545,-3.5546,-3.5732,-3.5747,-3.5761,-3.59,-3.5934,-3.5962,0,0,0,0,0,0,-3.5277,-3.5276,-3.5233,-3.538,-3.5407,-3.5411,-3.5493,-3.544,-3.5489,-3.5474,-3.5421,-3.5427,-3.5558,-3.5563,-3.5478,-3.5712,-3.5606,-3.5626,-3.5704,-3.5736,-3.5762,-3.5758,-3.5356,0,0,0,0,0,-3.5325,-3.5398,-3.5393,-3.5524,-3.554,-3.5514,-3.5552,-3.5518,-3.5544,-3.5555,-3.5557,-3.5585,-3.5649,-3.5692,-3.5751,-3.591,-3.5913,-3.5987,-3.6012,-3.6033,-3.6052,-3.6136,-3.6169,-3.5817,-3.5817,-3.5817,0,0,-3.5426,-3.5434,-3.5484,-3.5553,-3.557,-3.5647,-3.5525,-3.5611,-3.5668,-3.5568,-3.5682,-3.5685,-3.5712,-3.5853,-3.5915,-3.5862,-3.6149,-3.6052,-3.6069,-3.6076,-3.6155,-3.6188,-3.6218,-3.5828,-3.5826,-3.5824,0,0,-3.565,-3.5663,-3.5774,-3.5793,-3.582,-3.5802,-3.5828,-3.584,-3.5837,-3.5951,-3.5878,-3.5943,-3.6055,-3.6078,-3.6104,-3.6334,-3.6276,-3.6354,-3.6489,-3.6572,-3.66,-3.6624,-3.6707,-3.6738,-3.6372,-3.6372,-3.6372,0,-3.5773,-3.5885,-3.5837,-3.5929,-3.5961,-3.5873,-3.5984,-3.6005,-3.6051,-3.6075,-3.6014,-3.6151,-3.6164,-3.6309,-3.6365,-3.6388,-3.6417,-3.6353,-3.66,-3.6624,-3.6646,-3.6724,-3.6756,-3.6382,-3.638,-3.6379,-3.6379,0,-3.6035,-3.6114,-3.62,-3.6245,-3.6287,-3.6388,-3.6355,-3.6402,-3.6364,-3.6352,-3.6468,-3.648,-3.6539,-3.657,-3.6534,-3.671,-3.6676,-3.6608,-3.6501,-3.669,-3.6763,-3.6792,-3.6395,-3.6392,-3.6389,-3.6387,0,0,-3.6353,-3.6368,-3.6401,-3.642,-3.6442,-3.6503,-3.6599,-3.6656,-3.6698,-3.6731,-3.6811,-3.6907,-3.6844,-3.6874,-3.6839,-3.6911,-3.7094,-3.6835,-3.6834,-3.6884,-3.7289,-3.7341,-3.7377,-3.7054,-3.7059,-3.7064,-3.7287,0,-3.6575,-3.6741,-3.67,-3.6865,-3.6937,-3.6853,-3.6937,-3.696,-3.695,-3.701,-3.6999,-3.7068,-3.698,-3.6997,-3.7065,-3.7057,-3.7174,-3.704,-3.7128,-3.7132,-3.7127,-3.7414,-3.747,-3.768,-3.7315,-3.732,-3.7323,0,-3.6857,-3.6901,-3.7073,-3.7083,-3.7112,-3.7188,-3.7237,-3.7295,-3.7318,-3.7306,-3.7338,-3.7288,-3.7383,-3.7273,-3.7403,-3.7312,-3.7345,-3.7347,-3.7354,-3.7362,-3.7241,-3.7432,-3.7746,-3.7779,-3.7367,-3.7364,-3.736,0,-3.7073,-3.7175,-3.7291,-3.731,-3.7324,-3.7379,-3.7387,-3.7405,-3.7441,-3.7483,-3.7506,-3.7559,-3.7588,-3.763,-3.7595,-3.7518,-3.7731,-3.7618,-3.7724,-3.7725,-3.7775,-3.7773,-3.8101,-3.7793,-3.7793,-3.7792,-3.7792,0,-3.7327,-3.7436,-3.7388,-3.746,-3.7579,-3.753,-3.7649,-3.7647,-3.7663,-3.7733,-3.7662,-3.7729,-3.7678,-3.7741,-3.7714,-3.7825,-3.7839,-3.7832,-3.7824,-3.784,-3.7841,-3.7862,-3.7848,-3.7801,-3.7799,-3.7797,-3.7796,0,-3.759,-3.7562,-3.7683,-3.7686,-3.7689,-3.7777,-3.7778,-3.7845,-3.7829,-3.7918,-3.7936,-3.7912,-3.7981,-3.795,-3.8023,-3.8004,-3.8149,-3.812,-3.8142,-3.8135,-3.8243,-3.8234,-3.8598,-3.8643,-3.8306,-3.8309,-3.8312,0,-3.7755,-3.7837,-3.7848,-3.7889,-3.7902,-3.797,-3.8007,-3.796,-3.8001,-3.8033,-3.8096,-3.8158,-3.8207,-3.8322,-3.8311,-3.8366,-3.8339,-3.8462,-3.8347,-3.836,-3.8342,-3.8339,-3.8347,-3.8487,-3.8491,-3.8494,-3.8496,0,-3.8052,-3.8033,-3.8089,-3.814,-3.8186,-3.8224,-3.8255,-3.8293,-3.8247,-3.8297,-3.8367,-3.8404,-3.8478,-3.8542,-3.859,-3.8597,-3.8541,-3.8532,-3.856,-3.8578,-3.8588,-3.8585,-3.8207,-3.8525,-3.8522,-3.852,-3.8518,-3.8517,-3.8271,-3.834,-3.8358,-3.8423,-3.8441,-3.8472,-3.8534,-3.8526,-3.8583,-3.864,-3.8608,-3.869,-3.8709,-3.8768,-3.8783,-3.8846,-3.8797,-3.8837,-3.8848,-3.8859,-3.8874,-3.8576,-3.8854,-3.8853,-3.8853,-3.8852,-3.8851,0,-3.8565,-3.8572,-3.8632,-3.8678,-3.8728,-3.8668,-3.87,-3.8746,-3.8819,-3.8842,-3.889,-3.897,-3.9031,-3.9024,-3.9079,-3.9131,-3.9106,-3.9147,-3.9144,-3.9147,-3.8914,-3.8885,-3.9167,-3.9167,-3.9167,-3.9167,-3.9166,-3.9166,-3.8724,-3.8838,-3.8821,-3.8942,-3.8948,-3.9028,-3.9051,-3.9079,-3.9097,-3.9189,-3.9239,-3.9234,-3.9244,-3.93,-3.9353,-3.9349,-3.9373,-3.9425,-3.9412,-3.9195,-3.9163,-3.9134,-3.9106,-3.943,-3.9431,-3.964,-3.9642,-3.9643]},{"header":{"parameterUnit":"m.s-1","parameterCategory":1,"la1":30.2991,"la2":30.254,"lo1":-89.0895,"lo2":-89.0444,"dy":0.0017,"dx":0.0017,"nx":28,"ny":28,"refTime":"2025-09-07T09:00:00:Z","depth":0,"parameterNumber":3,"parameterNumberName":"V-component_of_WINDS"},"data":[0,0,0,0,0,0,0,0,0,0,0,0,0,0,0,0,0,0,0,0,0,0,0,0,0,0,0,0,0,0,0,0,0,0,0,0,0,0,0,0,0,0,0,0,0,0,0,0,0,0,0,0,0,0,0,0,0,0,-6.08,-6.0801,0,-6.088,-6.0881,-6.0882,-6.0799,-6.0796,-6.0793,-6.079,-6.0866,-6.0871,-6.0876,0,0,0,0,0,0,0,0,0,0,0,0,0,-6.0571,-6.0576,-6.08,-6.0801,-6.0802,-6.088,-6.0881,-6.0882,-6.08,-6.0796,-6.0792,-6.0789,-6.0865,-6.087,-6.0876,0,0,0,0,0,0,0,0,0,0,0,0,0,-6.0662,-6.0577,-6.08,-6.0771,-6.0769,-6.0879,-6.0881,-6.0882,-6.0801,-6.0796,-6.0791,-6.0787,-6.0863,-6.087,-6.0877,-6.1019,0,0,-6.09,-6.0903,0,0,0,0,0,0,0,0,-6.0657,-6.0671,-6.0774,-6.0773,-6.0771,-6.0825,-6.0828,-6.0928,-6.0802,-6.0789,-6.079,-6.0784,-6.0856,-6.0864,-6.0889,-6.1022,-6.1026,-6.0901,-6.0905,-6.0909,-6.0911,0,0,0,0,0,0,0,-6.0651,-6.0667,-6.0831,-6.0776,-6.0774,-6.0752,-6.0759,-6.0846,-6.0848,-6.0789,-6.0784,-6.0794,-6.0854,-6.0882,-6.089,-6.1027,-6.0901,-6.0907,-6.0912,-6.0915,-6.1277,-6.1282,0,0,0,0,0,0,-6.0649,-6.0662,-6.0829,-6.0834,-6.0702,-6.076,-6.0768,-6.0812,-6.0847,-6.0847,-6.0798,-6.079,-6.0871,-6.0881,-6.0892,-6.1059,-6.0908,-6.0915,-6.092,-6.1272,-6.1279,-6.1284,0,0,0,0,0,0,-6.0644,-6.0664,-6.0826,-6.0747,-6.0765,-6.0769,-6.0819,-6.0816,-6.0844,-6.0854,-6.0853,-6.0827,-6.0868,-6.0882,-6.0988,-6.106,-6.0919,-6.0926,-6.1266,-6.1274,-6.1281,-6.1394,0,0,0,0,0,0,-6.0638,-6.0663,-6.0719,-6.0749,-6.077,-6.0922,-6.0823,-6.0821,-6.0858,-6.0848,-6.088,-6.0881,-6.0865,-6.0977,-6.0995,-6.1068,-6.0931,-6.126,-6.127,-6.1279,-6.1384,-6.1404,-6.1422,0,0,0,0,0,-6.063,-6.0747,-6.0722,-6.0743,-6.084,-6.0927,-6.0938,-6.092,-6.0864,-6.0919,-6.0924,-6.088,-6.105,-6.0989,-6.1008,-6.1085,-6.1255,-6.1267,-6.1278,-6.1375,-6.14,-6.1422,0,0,0,0,0,0,-6.0724,-6.075,-6.0723,-6.0853,-6.0889,-6.0913,-6.0981,-6.0948,-6.0998,-6.0987,-6.096,-6.0968,-6.108,-6.1092,-6.1024,-6.1222,-6.1143,-6.1159,-6.121,-6.1234,-6.1253,-6.1247,-6.0938,0,0,0,0,0,-6.076,-6.083,-6.0848,-6.0961,-6.098,-6.0978,-6.1015,-6.0998,-6.1032,-6.1046,-6.106,-6.1094,-6.1154,-6.1195,-6.1251,-6.1385,-6.1389,-6.1447,-6.1466,-6.1482,-6.1496,-6.1566,-6.1591,-6.1322,-6.1322,-6.1322,0,0,-6.0835,-6.0858,-6.0903,-6.0981,-6.1006,-6.1077,-6.0991,-6.107,-6.1122,-6.1058,-6.1159,-6.117,-6.1205,-6.1326,-6.1379,-6.134,-6.1571,-6.1497,-6.1509,-6.1515,-6.158,-6.1605,-6.1628,-6.133,-6.1329,-6.1327,0,0,-6.1007,-6.1033,-6.1128,-6.1156,-6.1195,-6.1193,-6.1216,-6.1245,-6.125,-6.1352,-6.1304,-6.1364,-6.147,-6.1497,-6.1525,-6.1706,-6.1666,-6.1725,-6.1825,-6.1894,-6.1915,-6.1933,-6.1996,-6.2019,-6.1739,-6.1739,-6.1739,0,-6.1094,-6.1202,-6.1181,-6.1264,-6.1299,-6.1245,-6.1341,-6.1367,-6.1423,-6.1447,-6.1402,-6.1533,-6.1553,-6.1678,-6.1722,-6.1747,-6.177,-6.1721,-6.1914,-6.1932,-6.1949,-6.2009,-6.2033,-6.1746,-6.1745,-6.1744,-6.1744,0,-6.1306,-6.1381,-6.1454,-6.151,-6.1553,-6.1641,-6.1632,-6.1677,-6.1656,-6.1657,-6.176,-6.1782,-6.1841,-6.187,-6.1849,-6.1991,-6.1965,-6.1918,-6.1838,-6.1982,-6.2037,-6.206,-6.1756,-6.1753,-6.1751,-6.1749,0,0,-6.154,-6.1584,-6.1611,-6.1635,-6.1675,-6.1731,-6.1816,-6.1876,-6.1914,-6.1954,-6.2023,-6.2113,-6.2069,-6.21,-6.2082,-6.2142,-6.2282,-6.2087,-6.2087,-6.2121,-6.2438,-6.2472,-6.25,-6.2256,-6.2261,-6.2264,-6.2434,0,-6.1712,-6.1863,-6.1846,-6.1988,-6.2056,-6.2005,-6.2079,-6.211,-6.2113,-6.2169,-6.2171,-6.2235,-6.2173,-6.2192,-6.2249,-6.2253,-6.2345,-6.2241,-6.2318,-6.2321,-6.231,-6.2529,-6.2566,-6.2726,-6.2456,-6.246,-6.2462,0,-6.1934,-6.1983,-6.2132,-6.216,-6.2187,-6.2255,-6.2307,-6.2362,-6.2395,-6.2392,-6.2428,-6.2398,-6.2481,-6.24,-6.2513,-6.2442,-6.2472,-6.2479,-6.2485,-6.249,-6.24,-6.2539,-6.2776,-6.28,-6.2497,-6.2494,-6.2491,0,-6.2088,-6.2191,-6.2293,-6.2315,-6.2351,-6.2399,-6.2415,-6.2444,-6.248,-6.2525,-6.2548,-6.2601,-6.263,-6.2672,-6.2657,-6.2599,-6.2772,-6.269,-6.277,-6.2771,-6.2808,-6.2806,-6.3053,-6.283,-6.283,-6.2829,-6.2829,0,-6.2281,-6.2374,-6.2362,-6.2425,-6.2527,-6.2506,-6.2606,-6.2616,-6.2642,-6.2704,-6.2663,-6.2721,-6.2699,-6.2756,-6.2744,-6.2838,-6.2852,-6.2851,-6.2846,-6.2854,-6.2854,-6.2873,-6.2861,-6.2836,-6.2834,-6.2833,-6.2832,0,-6.247,-6.2467,-6.2574,-6.2599,-6.2607,-6.2681,-6.2701,-6.2758,-6.2758,-6.2837,-6.2854,-6.2853,-6.2917,-6.2907,-6.2978,-6.297,-6.3087,-6.307,-6.3077,-6.3072,-6.3153,-6.3145,-6.342,-6.3454,-6.321,-6.3213,-6.3215,0,-6.2594,-6.2664,-6.2697,-6.2736,-6.2756,-6.282,-6.2857,-6.2839,-6.2878,-6.2921,-6.2973,-6.3034,-6.3081,-6.3186,-6.319,-6.3244,-6.3226,-6.3319,-6.3234,-6.3239,-6.3226,-6.3222,-6.3228,-6.3336,-6.3338,-6.3341,-6.3342,0,-6.2813,-6.2807,-6.2863,-6.2918,-6.2964,-6.3006,-6.3044,-6.3078,-6.3062,-6.3109,-6.3175,-6.3212,-6.3285,-6.3345,-6.3395,-6.3409,-6.3373,-6.3369,-6.339,-6.3398,-6.3399,-6.3398,-6.3121,-6.3363,-6.3361,-6.3359,-6.3358,-6.3357,-6.2971,-6.3031,-6.3063,-6.3126,-6.3153,-6.3189,-6.3244,-6.3251,-6.3306,-6.3365,-6.335,-6.3425,-6.3453,-6.3517,-6.3537,-6.3593,-6.3558,-6.359,-6.3597,-6.3605,-6.3614,-6.3391,-6.3602,-6.3601,-6.3601,-6.36,-6.36,0,-6.3187,-6.3205,-6.3263,-6.3318,-6.3367,-6.3331,-6.337,-6.3413,-6.348,-6.3511,-6.3559,-6.3633,-6.3691,-6.37,-6.3754,-6.3798,-6.3782,-6.3812,-6.3808,-6.3812,-6.3642,-6.3618,-6.3824,-6.3824,-6.3824,-6.3824,-6.3824,-6.3823,-6.3305,-6.3403,-6.3401,-6.3512,-6.3528,-6.3602,-6.3627,-6.366,-6.3684,-6.377,-6.3819,-6.3824,-6.3846,-6.3901,-6.3952,-6.3953,-6.3974,-6.401,-6.4005,-6.3846,-6.3824,-6.3803,-6.3779,-6.4015,-6.4016,-6.4169,-6.417,-6.4171]}]]